Date String (YYYY-MM-DD hh:mm:ss) UTC,Instrument flags,Ambient pressure (hPa),Sample flow (lpm),Bypass flow (lpm),Sample temperature (°C),Ambient temperature (°C),ASC tube jacket temperature (°C),LED temperature (°C),Box temperature (°C),Sample RH (%),Span deviation,Mass concentration (μg/m³),Mass concentration (μg/m³),Mass concentration (μg/m³)
DateTimeUTC,F1_M11,P_M11,Q1_M11,Q2_M11,T1_M11,T2_M11,T3_M11,T4_M11,T5_M11,U1_M11,ZSPAN_M11,X0_M11,X2_M11,X1_M11
2022-08-18 15:00:00,,0831.4,5.01,0.00,30.0,29.0,00.0,38.8,32.0,20.7,0000.3,0009.41,0006.20,0005.70
2022-08-18 15:01:00,,0831.4,5.00,0.00,30.1,29.0,00.0,38.8,32.0,21.7,0000.0,0009.33,0006.18,0005.70
2022-08-18 15:02:00,,0831.5,5.01,0.00,30.0,28.6,00.0,38.7,31.8,23.0,0000.0,0009.17,0006.14,0005.68
2022-08-18 15:03:00,,0831.5,4.99,0.00,30.0,28.0,00.0,38.7,31.7,21.9,0000.3,0009.41,0006.09,0005.67
2022-08-18 15:04:00,,0831.5,5.01,0.00,29.9,27.8,00.0,38.7,31.7,22.8,0000.9,0009.72,0006.06,0005.67
2022-08-18 15:05:00,,0831.5,5.00,0.00,29.9,27.8,00.0,38.6,31.6,24.1,0000.2,0009.70,0006.04,0005.65
2022-08-18 15:06:00,,0831.5,4.99,0.00,29.8,27.9,00.0,38.6,31.6,23.8,0000.8,0009.80,0006.00,0005.63
2022-08-18 15:07:00,,0831.5,5.00,0.00,29.8,28.0,00.0,38.6,31.6,22.6,0001.8,0009.84,0005.99,0005.62
2022-08-18 15:08:00,,0831.5,5.01,0.00,29.8,28.1,00.0,38.6,31.6,21.3,0002.1,0010.98,0005.97,0005.62
2022-08-18 15:09:00,,0831.5,5.00,0.00,29.8,28.3,00.0,38.6,31.7,21.1,0001.1,0010.94,0005.98,0005.63
2022-08-18 15:10:00,,0831.5,4.99,0.00,29.8,28.4,00.0,38.6,31.7,21.1,0000.0,0010.92,0005.99,0005.63
2022-08-18 15:11:00,,0831.5,5.01,0.00,29.8,28.5,00.0,38.6,31.7,20.5,0000.0,0010.76,0005.93,0005.62
2022-08-18 15:12:00,,0831.5,5.01,0.00,29.9,28.6,00.0,38.6,31.8,20.8,0000.0,0010.75,0005.93,0005.61
2022-08-18 15:13:00,,0831.5,5.01,0.00,29.9,28.7,00.0,38.7,31.8,20.4,0000.0,0010.86,0005.95,0005.62
2022-08-18 15:14:00,,0831.5,5.00,0.00,29.9,28.8,00.0,38.7,31.9,21.2,0000.0,0010.79,0005.98,0005.62
2022-08-18 15:15:00,,0831.5,5.01,0.00,29.9,28.9,00.0,38.7,31.9,21.1,0000.0,0010.18,0006.00,0005.62
2022-08-18 15:16:00,,0831.5,5.00,0.00,30.0,28.9,00.0,38.7,31.9,21.5,0000.0,0010.03,0005.98,0005.62
2022-08-18 15:17:00,,0831.5,4.99,0.00,30.0,28.4,00.0,38.6,31.8,21.3,0000.0,0009.89,0005.97,0005.61
2022-08-18 15:18:00,,0831.5,4.99,0.00,29.9,27.7,00.0,38.6,31.6,22.3,0000.0,0009.82,0005.98,0005.62
2022-08-18 15:19:00,,0831.5,4.99,0.00,29.8,27.6,00.0,38.6,31.6,23.1,0000.0,0008.67,0005.98,0005.61
2022-08-18 15:20:00,,0831.5,5.00,0.00,29.8,27.6,00.0,38.6,31.5,23.3,0000.0,0008.57,0005.96,0005.60
2022-08-18 15:21:00,,0831.5,5.01,0.00,29.8,27.7,00.0,38.6,31.5,23.2,0000.0,0008.69,0005.95,0005.58
2022-08-18 15:22:00,,0831.6,5.00,0.00,29.7,27.9,00.0,38.6,31.5,23.4,0000.0,0009.72,0005.99,0005.56
2022-08-18 15:23:00,,0831.5,5.00,0.00,29.7,28.1,00.0,38.6,31.5,23.6,0000.0,0010.11,0005.96,0005.54
2022-08-18 15:24:00,,0831.6,5.00,0.00,29.8,28.2,00.0,38.6,31.6,22.6,0000.0,0010.15,0005.97,0005.53
2022-08-18 15:25:00,,0831.5,5.01,0.00,29.8,28.3,00.0,38.6,31.7,21.8,0000.0,0010.18,0005.98,0005.52
2022-08-18 15:26:00,,0831.6,5.00,0.00,29.8,28.5,00.0,38.6,31.7,19.7,0000.0,0010.69,0006.03,0005.55
2022-08-18 15:27:00,,0831.5,5.01,0.00,29.8,28.6,00.0,38.6,31.7,19.5,0000.0,0010.77,0006.08,0005.59
2022-08-18 15:28:00,,0831.6,5.00,0.00,29.8,28.7,00.0,38.6,31.8,19.8,0000.0,0011.15,0006.13,0005.63
2022-08-18 15:29:00,,0831.5,5.00,0.00,29.9,28.8,00.0,38.6,31.7,20.2,0000.0,0012.04,0006.16,0005.67
2022-08-18 15:30:00,,0831.5,5.00,0.00,29.9,28.9,00.0,38.6,31.8,20.7,0000.0,0012.37,0006.18,0005.71
2022-08-18 15:31:00,,0831.5,5.00,0.00,29.9,28.9,00.0,38.6,31.9,21.2,0000.0,0012.44,0006.23,0005.75
2022-08-18 15:32:00,,0831.5,5.00,0.00,29.9,28.7,00.0,38.6,31.8,20.5,0000.0,0012.48,0006.27,0005.80
2022-08-18 15:33:00,,0831.5,5.01,0.00,29.9,28.1,00.0,38.6,31.6,20.5,0000.0,0011.89,0006.32,0005.87
2022-08-18 15:34:00,,0831.5,4.99,0.00,29.8,27.7,00.0,38.5,31.5,20.4,0000.0,0011.81,0006.44,0005.94
2022-08-18 15:35:00,,0831.6,5.01,0.00,29.8,27.7,00.0,38.5,31.5,20.7,0000.0,0011.83,0006.49,0006.01
2022-08-18 15:36:00,,0831.5,5.00,0.00,29.7,27.8,00.0,38.5,31.5,24.3,0000.0,0011.74,0006.50,0006.05
2022-08-18 15:37:00,,0831.5,5.00,0.00,29.7,27.9,00.0,38.5,31.5,22.9,0000.0,0011.87,0006.50,0006.05
2022-08-18 15:38:00,,0831.5,5.01,0.00,29.7,28.0,00.0,38.5,31.5,23.9,0000.0,0012.16,0006.50,0006.03
2022-08-18 15:39:00,,0831.5,4.99,0.00,29.7,28.2,00.0,38.5,31.6,25.0,0000.0,0011.83,0006.48,0006.00
2022-08-18 15:40:00,,0831.5,5.00,0.00,29.7,28.3,00.0,38.5,31.6,24.7,0000.0,0011.67,0006.46,0005.97
2022-08-18 15:41:00,,0831.5,4.99,0.00,29.8,28.5,00.0,38.5,31.7,24.9,0000.0,0011.34,0006.44,0005.95
2022-08-18 15:42:00,,0831.5,5.00,0.00,29.8,28.6,00.0,38.5,31.7,24.4,0000.0,0011.51,0006.44,0005.92
2022-08-18 15:43:00,,0831.5,5.00,0.00,29.8,28.7,00.0,38.6,31.7,24.6,0000.0,0011.65,0006.42,0005.88
2022-08-18 15:44:00,,0831.5,5.00,0.00,29.8,28.8,00.0,38.6,31.7,24.6,0000.0,0011.55,0006.36,0005.84
2022-08-18 15:45:00,,0831.5,5.00,0.00,29.9,28.8,00.0,38.6,31.8,24.2,0000.0,0011.35,0006.27,0005.78
2022-08-18 15:46:00,,0831.5,4.99,0.00,29.8,28.2,00.0,38.5,31.6,23.9,0000.0,0011.59,0006.21,0005.73
2022-08-18 15:47:00,,0831.5,5.01,0.00,29.8,27.7,00.0,38.5,31.5,23.6,0000.0,0011.65,0006.21,0005.72
2022-08-18 15:48:00,,0831.5,5.00,0.00,29.7,27.6,00.0,38.5,31.5,23.7,0000.0,0011.04,0006.20,0005.72
2022-08-18 15:49:00,,0831.6,4.99,0.00,29.7,27.7,00.0,38.5,31.4,23.8,0000.0,0011.09,0006.18,0005.72
2022-08-18 15:50:00,,0831.5,5.02,0.00,29.7,27.8,00.0,38.5,31.4,23.8,0000.0,0011.21,0006.20,0005.73
2022-08-18 15:51:00,,0831.5,4.99,0.00,29.7,28.0,00.0,38.5,31.5,23.8,0000.0,0010.62,0006.23,0005.74
2022-08-18 15:52:00,,0831.5,4.99,0.00,29.7,28.1,00.0,38.5,31.5,23.5,0000.0,0010.65,0006.26,0005.76
2022-08-18 15:53:00,,0831.5,5.01,0.00,29.7,28.3,00.0,38.5,31.5,23.3,0000.0,0010.45,0006.24,0005.77
2022-08-18 15:54:00,,0831.5,5.01,0.00,29.7,28.4,00.0,38.5,31.6,23.4,0000.0,0010.27,0006.25,0005.78
2022-08-18 15:55:00,,0831.5,4.99,0.00,29.7,28.5,00.0,38.5,31.7,23.5,0000.0,0009.97,0006.29,0005.81
2022-08-18 15:56:00,,0831.5,5.00,0.00,29.8,28.6,00.0,38.5,31.7,23.4,0000.0,0009.97,0006.30,0005.83
2022-08-18 15:57:00,,0831.5,5.01,0.00,29.8,28.7,00.0,38.5,31.7,23.6,0000.0,0010.06,0006.31,0005.85
2022-08-18 15:58:00,,0831.6,5.00,0.00,29.8,28.6,00.0,38.5,31.7,23.0,0000.0,0010.12,0006.31,0005.86
2022-08-18 15:59:00,,0831.5,5.00,0.00,29.8,28.0,00.0,38.5,31.5,23.4,0000.0,0010.23,0006.31,0005.86
